Year,Month,Day,Hour,Minute,Value (Times are PST for temperature in C)
2010,10,04,00,00,7.90
2010,10,04,00,01,7.80
2010,10,04,00,02,7.80
2010,10,04,00,03,7.80
2010,10,04,00,04,7.80
2010,10,04,00,05,7.80
2010,10,04,00,06,7.80
2010,10,04,00,07,7.80
2010,10,04,00,08,7.90
2010,10,04,00,09,7.90
2010,10,04,00,10,7.90
2010,10,04,00,11,7.90
2010,10,04,00,12,7.90
2010,10,04,00,13,7.90
2010,10,04,00,14,7.90
2010,10,04,00,15,7.90
2010,10,04,00,16,7.80
2010,10,04,00,17,7.80
2010,10,04,00,18,7.80
2010,10,04,00,19,7.80
2010,10,04,00,20,7.80
2010,10,04,00,21,7.70
2010,10,04,00,22,7.70
2010,10,04,00,23,7.70
2010,10,04,00,24,7.60
2010,10,04,00,25,7.60
2010,10,04,00,26,7.60
2010,10,04,00,27,7.60
2010,10,04,00,28,7.60
2010,10,04,00,29,7.50
2010,10,04,00,30,7.50
2010,10,04,00,31,7.40
2010,10,04,00,32,7.40
2010,10,04,00,33,7.40
2010,10,04,00,34,7.30
2010,10,04,00,35,7.30
2010,10,04,00,36,7.30
2010,10,04,00,37,7.30
2010,10,04,00,38,7.30
2010,10,04,00,39,7.30
2010,10,04,00,40,7.20
2010,10,04,00,41,7.20
2010,10,04,00,42,7.20
2010,10,04,00,43,7.20
2010,10,04,00,44,7.10
2010,10,04,00,45,7.10
2010,10,04,00,46,7.10
2010,10,04,00,47,7.00
2010,10,04,00,48,7.00
2010,10,04,00,49,7.00
2010,10,04,00,50,7.00
2010,10,04,00,51,6.90
2010,10,04,00,52,6.90
2010,10,04,00,53,6.90
2010,10,04,00,54,6.80
2010,10,04,00,55,6.80
2010,10,04,00,56,6.80
2010,10,04,00,57,6.80
2010,10,04,00,58,6.80
2010,10,04,00,59,6.80
2010,10,04,01,00,6.80
2010,10,04,01,01,6.70
2010,10,04,01,02,6.70
2010,10,04,01,03,6.70
2010,10,04,01,04,6.70
2010,10,04,01,05,6.70
2010,10,04,01,06,6.70
2010,10,04,01,07,6.70
2010,10,04,01,08,6.70
2010,10,04,01,09,6.70
2010,10,04,01,10,6.60
2010,10,04,01,11,6.60
2010,10,04,01,12,6.60
2010,10,04,01,13,6.60
2010,10,04,01,14,6.60
2010,10,04,01,15,6.60
2010,10,04,01,16,6.60
2010,10,04,01,17,6.60
2010,10,04,01,18,6.60
2010,10,04,01,19,6.60
2010,10,04,01,20,6.60
2010,10,04,01,21,6.60
2010,10,04,01,22,6.60
2010,10,04,01,23,6.60
2010,10,04,01,24,6.60
2010,10,04,01,25,6.60
2010,10,04,01,26,6.60
2010,10,04,01,27,6.60
2010,10,04,01,28,6.60
2010,10,04,01,29,6.60
2010,10,04,01,30,6.50
2010,10,04,01,31,6.40
2010,10,04,01,32,6.40
2010,10,04,01,33,6.40
2010,10,04,01,34,6.40
2010,10,04,01,35,6.30
2010,10,04,01,36,6.30
2010,10,04,01,37,6.30
2010,10,04,01,38,6.30
2010,10,04,01,39,6.20
2010,10,04,01,40,6.20
2010,10,04,01,41,6.20
2010,10,04,01,42,6.20
2010,10,04,01,43,6.20
2010,10,04,01,44,6.10
2010,10,04,01,45,6.10
2010,10,04,01,46,6.10
2010,10,04,01,47,6.10
2010,10,04,01,48,6.00
2010,10,04,01,49,6.00
2010,10,04,01,50,6.00
2010,10,04,01,51,5.90
2010,10,04,01,52,5.90
2010,10,04,01,53,5.90
2010,10,04,01,54,5.80
2010,10,04,01,55,5.80
2010,10,04,01,56,5.80
2010,10,04,01,57,5.80
2010,10,04,01,58,5.80
2010,10,04,01,59,5.70
2010,10,04,02,00,5.70
2010,10,04,02,01,5.70
2010,10,04,02,02,5.70
2010,10,04,02,03,5.70
2010,10,04,02,04,5.70
2010,10,04,02,05,5.70
2010,10,04,02,06,5.70
2010,10,04,02,07,5.70
2010,10,04,02,08,5.70
2010,10,04,02,09,5.70
2010,10,04,02,10,5.70
2010,10,04,02,11,5.70
2010,10,04,02,12,5.70
2010,10,04,02,13,5.70
2010,10,04,02,14,5.70
2010,10,04,02,15,5.70
2010,10,04,02,16,5.70
2010,10,04,02,17,5.70
2010,10,04,02,18,5.70
2010,10,04,02,19,5.70
2010,10,04,02,20,5.70
2010,10,04,02,21,5.70
2010,10,04,02,22,5.70
2010,10,04,02,23,5.70
2010,10,04,02,24,5.70
2010,10,04,02,25,5.60
2010,10,04,02,26,5.60
2010,10,04,02,27,5.60
2010,10,04,02,28,5.60
2010,10,04,02,29,5.50
2010,10,04,02,30,5.50
2010,10,04,02,31,5.50
2010,10,04,02,32,5.50
2010,10,04,02,33,5.50
2010,10,04,02,34,5.50
2010,10,04,02,35,5.50
2010,10,04,02,36,5.50
2010,10,04,02,37,5.50
2010,10,04,02,38,5.50
2010,10,04,02,39,5.50
2010,10,04,02,40,5.50
2010,10,04,02,41,5.50
2010,10,04,02,42,5.50
2010,10,04,02,43,5.40
2010,10,04,02,44,5.40
2010,10,04,02,45,5.40
2010,10,04,02,46,5.40
2010,10,04,02,47,5.40
2010,10,04,02,48,5.40
2010,10,04,02,49,5.40
2010,10,04,02,50,5.40
2010,10,04,02,51,5.40
2010,10,04,02,52,5.40
2010,10,04,02,53,5.40
2010,10,04,02,54,5.30
2010,10,04,02,55,5.30
2010,10,04,02,56,5.30
2010,10,04,02,57,5.30
2010,10,04,02,58,5.30
2010,10,04,02,59,5.30
2010,10,04,03,00,5.30
2010,10,04,03,01,5.20
2010,10,04,03,02,5.20
2010,10,04,03,03,5.20
2010,10,04,03,04,5.20
2010,10,04,03,05,5.20
2010,10,04,03,06,5.20
2010,10,04,03,07,5.10
2010,10,04,03,08,5.10
2010,10,04,03,09,5.10
2010,10,04,03,10,5.10
2010,10,04,03,11,5.10
2010,10,04,03,12,5.10
2010,10,04,03,13,5.10
2010,10,04,03,14,5.10
2010,10,04,03,15,5.10
2010,10,04,03,16,5.10
2010,10,04,03,17,5.10
2010,10,04,03,18,5.10
2010,10,04,03,19,5.10
2010,10,04,03,20,5.10
2010,10,04,03,21,5.10
2010,10,04,03,22,5.10
2010,10,04,03,23,5.10
2010,10,04,03,24,5.00
2010,10,04,03,25,4.90
2010,10,04,03,26,4.90
2010,10,04,03,27,4.90
2010,10,04,03,28,4.90
2010,10,04,03,29,4.90
2010,10,04,03,30,4.90
2010,10,04,03,31,4.90
2010,10,04,03,32,4.90
2010,10,04,03,33,4.90
2010,10,04,03,34,4.90
2010,10,04,03,35,5.00
2010,10,04,03,36,5.10
2010,10,04,03,37,5.10
2010,10,04,03,38,5.10
2010,10,04,03,39,5.10
2010,10,04,03,40,5.10
2010,10,04,03,41,5.10
2010,10,04,03,42,5.10
2010,10,04,03,43,5.00
2010,10,04,03,44,4.90
2010,10,04,03,45,4.90
2010,10,04,03,46,4.90
2010,10,04,03,47,4.90
2010,10,04,03,48,4.80
2010,10,04,03,49,4.80
2010,10,04,03,50,4.80
2010,10,04,03,51,4.70
2010,10,04,03,52,4.70
2010,10,04,03,53,4.70
2010,10,04,03,54,4.60
2010,10,04,03,55,4.60
2010,10,04,03,56,4.60
2010,10,04,03,57,4.60
2010,10,04,03,58,4.60
2010,10,04,03,59,4.60
2010,10,04,04,00,4.60
2010,10,04,04,01,4.50
2010,10,04,04,02,4.50
2010,10,04,04,03,4.50
2010,10,04,04,04,4.40
2010,10,04,04,05,4.40
2010,10,04,04,06,4.40
2010,10,04,04,07,4.30
2010,10,04,04,08,4.30
2010,10,04,04,09,4.30
2010,10,04,04,10,4.30
2010,10,04,04,11,4.30
2010,10,04,04,12,4.40
2010,10,04,04,13,4.40
2010,10,04,04,14,4.40
2010,10,04,04,15,4.40
2010,10,04,04,16,4.40
2010,10,04,04,17,4.40
2010,10,04,04,18,4.40
2010,10,04,04,19,4.40
2010,10,04,04,20,4.40
2010,10,04,04,21,4.40
2010,10,04,04,22,4.40
2010,10,04,04,23,4.30
2010,10,04,04,24,4.30
2010,10,04,04,25,4.30
2010,10,04,04,26,4.30
2010,10,04,04,27,4.30
2010,10,04,04,28,4.30
2010,10,04,04,29,4.30
2010,10,04,04,30,4.30
2010,10,04,04,31,4.40
2010,10,04,04,32,4.40
2010,10,04,04,33,4.40
2010,10,04,04,34,4.50
2010,10,04,04,35,4.50
2010,10,04,04,36,4.60
2010,10,04,04,37,4.60
2010,10,04,04,38,4.60
2010,10,04,04,39,4.60
2010,10,04,04,40,4.60
2010,10,04,04,41,4.60
2010,10,04,04,42,4.50
2010,10,04,04,43,4.50
2010,10,04,04,44,4.50
2010,10,04,04,45,4.50
2010,10,04,04,46,4.50
2010,10,04,04,47,4.50
2010,10,04,04,48,4.50
2010,10,04,04,49,4.50
2010,10,04,04,50,4.40
2010,10,04,04,51,4.40
2010,10,04,04,52,4.40
2010,10,04,04,53,4.40
2010,10,04,04,54,4.40
2010,10,04,04,55,4.40
2010,10,04,04,56,4.40
2010,10,04,04,57,4.40
2010,10,04,04,58,4.40
2010,10,04,04,59,4.40
2010,10,04,05,00,4.50
2010,10,04,05,01,4.50
2010,10,04,05,02,4.50
2010,10,04,05,03,4.50
2010,10,04,05,04,4.50
2010,10,04,05,05,4.40
2010,10,04,05,06,4.40
2010,10,04,05,07,4.40
2010,10,04,05,08,4.40
2010,10,04,05,09,4.30
2010,10,04,05,10,4.30
2010,10,04,05,11,4.30
2010,10,04,05,12,4.20
2010,10,04,05,13,4.20
2010,10,04,05,14,4.20
2010,10,04,05,15,4.20
2010,10,04,05,16,4.20
2010,10,04,05,17,4.20
2010,10,04,05,18,4.20
2010,10,04,05,19,4.20
2010,10,04,05,20,4.20
2010,10,04,05,21,4.20
2010,10,04,05,22,4.20
2010,10,04,05,23,4.20
2010,10,04,05,24,4.10
2010,10,04,05,25,4.10
2010,10,04,05,26,4.10
2010,10,04,05,27,4.10
2010,10,04,05,28,4.10
2010,10,04,05,29,4.00
2010,10,04,05,30,4.00
2010,10,04,05,31,4.00
2010,10,04,05,32,4.00
2010,10,04,05,33,4.00
2010,10,04,05,34,3.90
2010,10,04,05,35,3.90
2010,10,04,05,36,3.90
2010,10,04,05,37,3.80
2010,10,04,05,38,3.80
2010,10,04,05,39,3.80
2010,10,04,05,40,3.80
2010,10,04,05,41,3.90
2010,10,04,05,42,3.90
2010,10,04,05,43,3.90
2010,10,04,05,44,3.90
2010,10,04,05,45,3.90
2010,10,04,05,46,3.90
2010,10,04,05,47,3.90
2010,10,04,05,48,3.90
2010,10,04,05,49,3.90
2010,10,04,05,50,3.90
2010,10,04,05,51,4.00
2010,10,04,05,52,4.00
2010,10,04,05,53,4.00
2010,10,04,05,54,4.00
2010,10,04,05,55,4.10
2010,10,04,05,56,4.10
2010,10,04,05,57,4.10
2010,10,04,05,58,4.20
2010,10,04,05,59,4.10
2010,10,04,06,00,4.10
2010,10,04,06,01,4.10
2010,10,04,06,02,4.10
2010,10,04,06,03,4.10
2010,10,04,06,04,4.20
2010,10,04,06,05,4.20
2010,10,04,06,06,4.20
2010,10,04,06,07,4.20
2010,10,04,06,08,4.20
2010,10,04,06,09,4.20
2010,10,04,06,10,4.20
2010,10,04,06,11,4.10
2010,10,04,06,12,4.10
2010,10,04,06,13,4.10
2010,10,04,06,14,4.10
2010,10,04,06,15,4.20
2010,10,04,06,16,4.20
2010,10,04,06,17,4.20
2010,10,04,06,18,4.20
2010,10,04,06,19,4.20
2010,10,04,06,20,4.20
2010,10,04,06,21,4.20
2010,10,04,06,22,4.20
2010,10,04,06,23,4.20
2010,10,04,06,24,4.20
2010,10,04,06,25,4.20
2010,10,04,06,26,4.30
2010,10,04,06,27,4.30
2010,10,04,06,28,4.40
2010,10,04,06,29,4.40
2010,10,04,06,30,4.40
2010,10,04,06,31,4.40
2010,10,04,06,32,4.50
2010,10,04,06,33,4.50
2010,10,04,06,34,4.50
2010,10,04,06,35,4.50
2010,10,04,06,36,4.60
2010,10,04,06,37,4.50
2010,10,04,06,38,4.50
2010,10,04,06,39,4.50
2010,10,04,06,40,4.50
2010,10,04,06,41,4.50
2010,10,04,06,42,4.50
2010,10,04,06,43,4.40
2010,10,04,06,44,4.40
2010,10,04,06,45,4.40
2010,10,04,06,46,4.40
2010,10,04,06,47,4.40
2010,10,04,06,48,4.40
2010,10,04,06,49,4.40
2010,10,04,06,50,4.50
2010,10,04,06,51,4.50
2010,10,04,06,52,4.50
2010,10,04,06,53,4.50
2010,10,04,06,54,4.60
2010,10,04,06,55,4.60
2010,10,04,06,56,4.60
2010,10,04,06,57,4.60
2010,10,04,06,58,4.60
2010,10,04,06,59,4.60
2010,10,04,07,00,4.60
2010,10,04,07,01,4.60
2010,10,04,07,02,4.70
2010,10,04,07,03,4.70
2010,10,04,07,04,4.70
2010,10,04,07,05,4.70
2010,10,04,07,06,4.70
2010,10,04,07,07,4.80
2010,10,04,07,08,4.80
2010,10,04,07,09,4.80
2010,10,04,07,10,4.90
2010,10,04,07,11,4.90
2010,10,04,07,12,4.90
2010,10,04,07,13,4.90
2010,10,04,07,14,4.90
2010,10,04,07,15,5.00
2010,10,04,07,16,5.10
2010,10,04,07,17,5.10
2010,10,04,07,18,5.10
2010,10,04,07,19,5.10
2010,10,04,07,20,5.10
2010,10,04,07,21,5.10
2010,10,04,07,22,5.10
2010,10,04,07,23,5.10
2010,10,04,07,24,5.10
2010,10,04,07,25,5.10
2010,10,04,07,26,5.20
2010,10,04,07,27,5.20
2010,10,04,07,28,5.30
2010,10,04,07,29,5.30
2010,10,04,07,30,5.30
2010,10,04,07,31,5.30
2010,10,04,07,32,5.30
2010,10,04,07,33,5.40
2010,10,04,07,34,5.40
2010,10,04,07,35,5.40
2010,10,04,07,36,5.40
2010,10,04,07,37,5.40
2010,10,04,07,38,5.40
2010,10,04,07,39,5.40
2010,10,04,07,40,5.40
2010,10,04,07,41,5.40
2010,10,04,07,42,5.40
2010,10,04,07,43,5.40
2010,10,04,07,44,5.30
2010,10,04,07,45,5.30
2010,10,04,07,46,5.30
2010,10,04,07,47,5.30
2010,10,04,07,48,5.30
2010,10,04,07,49,5.30
2010,10,04,07,50,5.40
2010,10,04,07,51,5.40
2010,10,04,07,52,5.40
2010,10,04,07,53,5.40
2010,10,04,07,54,5.40
2010,10,04,07,55,5.50
2010,10,04,07,56,5.50
2010,10,04,07,57,5.50
2010,10,04,07,58,5.60
2010,10,04,07,59,5.60
2010,10,04,08,00,5.70
2010,10,04,08,01,5.70
2010,10,04,08,02,5.70
2010,10,04,08,03,5.70
2010,10,04,08,04,5.70
2010,10,04,08,05,5.70
2010,10,04,08,06,5.80
2010,10,04,08,07,5.80
2010,10,04,08,08,5.80
2010,10,04,08,09,5.90
2010,10,04,08,10,5.90
2010,10,04,08,11,6.00
2010,10,04,08,12,6.00
2010,10,04,08,13,6.00
2010,10,04,08,14,6.10
2010,10,04,08,15,6.20
2010,10,04,08,16,6.20
2010,10,04,08,17,6.30
2010,10,04,08,18,6.30
2010,10,04,08,19,6.40
2010,10,04,08,20,6.40
2010,10,04,08,21,6.50
2010,10,04,08,22,6.60
2010,10,04,08,23,6.60
2010,10,04,08,24,6.70
2010,10,04,08,25,6.80
2010,10,04,08,26,6.80
2010,10,04,08,27,6.90
2010,10,04,08,28,7.00
2010,10,04,08,29,7.10
2010,10,04,08,30,7.20
2010,10,04,08,31,7.20
2010,10,04,08,32,7.30
2010,10,04,08,33,7.30
2010,10,04,08,34,7.30
2010,10,04,08,35,7.40
2010,10,04,08,36,7.40
2010,10,04,08,37,7.50
2010,10,04,08,38,7.50
2010,10,04,08,39,7.60
2010,10,04,08,40,7.60
2010,10,04,08,41,7.70
2010,10,04,08,42,7.70
2010,10,04,08,43,7.80
2010,10,04,08,44,7.80
2010,10,04,08,45,7.80
2010,10,04,08,46,7.90
2010,10,04,08,47,7.90
2010,10,04,08,48,7.90
2010,10,04,08,49,8.00
2010,10,04,08,50,8.00
2010,10,04,08,51,8.00
2010,10,04,08,52,8.10
2010,10,04,08,53,8.10
2010,10,04,08,54,8.10
2010,10,04,08,55,8.10
2010,10,04,08,56,8.20
2010,10,04,08,57,8.20
2010,10,04,08,58,8.20
2010,10,04,08,59,8.20
2010,10,04,09,00,8.20
2010,10,04,09,01,8.30
2010,10,04,09,02,8.30
2010,10,04,09,03,8.40
2010,10,04,09,04,8.40
2010,10,04,09,05,8.50
2010,10,04,09,06,8.50
2010,10,04,09,07,8.50
2010,10,04,09,08,8.60
2010,10,04,09,09,8.60
2010,10,04,09,10,8.70
2010,10,04,09,11,8.70
2010,10,04,09,12,8.70
2010,10,04,09,13,8.70
2010,10,04,09,14,8.80
2010,10,04,09,15,8.80
2010,10,04,09,16,8.80
2010,10,04,09,17,8.80
2010,10,04,09,18,8.80
2010,10,04,09,19,8.80
2010,10,04,09,20,8.80
2010,10,04,09,21,8.90
2010,10,04,09,22,8.90
2010,10,04,09,23,8.90
2010,10,04,09,24,9.00
2010,10,04,09,25,9.00
2010,10,04,09,26,9.10
2010,10,04,09,27,9.10
2010,10,04,09,28,9.20
2010,10,04,09,29,9.30
2010,10,04,09,30,9.40
2010,10,04,09,31,9.50
2010,10,04,09,32,9.60
2010,10,04,09,33,9.70
2010,10,04,09,34,9.80
2010,10,04,09,35,9.90
2010,10,04,09,36,10.00
2010,10,04,09,37,10.10
2010,10,04,09,38,10.20
2010,10,04,09,39,10.30
2010,10,04,09,40,10.50
2010,10,04,09,41,10.60
2010,10,04,09,42,10.70
2010,10,04,09,43,10.90
2010,10,04,09,44,11.10
2010,10,04,09,45,11.30
2010,10,04,09,46,11.50
2010,10,04,09,47,11.80
2010,10,04,09,48,12.00
2010,10,04,09,49,12.20
2010,10,04,09,50,12.40
2010,10,04,09,51,12.50
2010,10,04,09,52,12.60
2010,10,04,09,53,12.70
2010,10,04,09,54,12.80
2010,10,04,09,55,12.80
2010,10,04,09,56,12.80
2010,10,04,09,57,12.90
2010,10,04,09,58,13.00
2010,10,04,09,59,13.10
2010,10,04,10,00,13.20
2010,10,04,10,01,13.20
2010,10,04,10,02,13.30
2010,10,04,10,03,13.40
2010,10,04,10,04,13.50
2010,10,04,10,05,13.70
2010,10,04,10,06,13.70
2010,10,04,10,07,13.80
2010,10,04,10,08,13.90
2010,10,04,10,09,14.00
2010,10,04,10,10,14.00
2010,10,04,10,11,13.90
2010,10,04,10,12,13.90
2010,10,04,10,13,13.90
2010,10,04,10,14,13.80
2010,10,04,10,15,13.80
2010,10,04,10,16,13.70
2010,10,04,10,17,13.70
2010,10,04,10,18,13.70
2010,10,04,10,19,13.80
2010,10,04,10,20,13.80
2010,10,04,10,21,13.80
2010,10,04,10,22,13.90
2010,10,04,10,23,13.80
2010,10,04,10,24,13.80
2010,10,04,10,25,13.70
2010,10,04,10,26,13.70
2010,10,04,10,27,13.60
2010,10,04,10,28,13.60
2010,10,04,10,29,13.60
2010,10,04,10,30,13.50
2010,10,04,10,31,13.50
2010,10,04,10,32,13.50
2010,10,04,10,33,13.40
2010,10,04,10,34,13.40
2010,10,04,10,35,13.50
2010,10,04,10,36,13.50
2010,10,04,10,37,13.50
2010,10,04,10,38,13.50
2010,10,04,10,39,13.50
2010,10,04,10,40,13.50
2010,10,04,10,41,13.50
2010,10,04,10,42,13.50
2010,10,04,10,43,13.50
2010,10,04,10,44,13.50
2010,10,04,10,45,13.50
2010,10,04,10,46,13.50
2010,10,04,10,47,13.40
2010,10,04,10,48,13.40
2010,10,04,10,49,13.30
2010,10,04,10,50,13.30
2010,10,04,10,51,13.30
2010,10,04,10,52,13.30
2010,10,04,10,53,13.30
2010,10,04,10,54,13.30
2010,10,04,10,55,13.40
2010,10,04,10,56,13.40
2010,10,04,10,57,13.50
2010,10,04,10,58,13.50
2010,10,04,10,59,13.50
2010,10,04,11,00,13.50
2010,10,04,11,01,13.50
2010,10,04,11,02,13.50
2010,10,04,11,03,13.50
2010,10,04,11,04,13.50
2010,10,04,11,05,13.50
2010,10,04,11,06,13.50
2010,10,04,11,07,13.50
2010,10,04,11,08,13.60
2010,10,04,11,09,13.60
2010,10,04,11,10,13.60
2010,10,04,11,11,13.60
2010,10,04,11,12,13.60
2010,10,04,11,13,13.60
2010,10,04,11,14,13.60
2010,10,04,11,15,13.70
2010,10,04,11,16,13.70
2010,10,04,11,17,13.70
2010,10,04,11,18,13.70
2010,10,04,11,19,13.80
2010,10,04,11,20,13.80
2010,10,04,11,21,13.90
2010,10,04,11,22,14.00
2010,10,04,11,23,14.00
2010,10,04,11,24,14.10
2010,10,04,11,25,14.20
2010,10,04,11,26,14.30
2010,10,04,11,27,14.40
2010,10,04,11,28,14.50
2010,10,04,11,29,14.60
2010,10,04,11,30,14.60
2010,10,04,11,31,14.60
2010,10,04,11,32,14.60
2010,10,04,11,33,14.60
2010,10,04,11,34,14.60
2010,10,04,11,35,14.60
2010,10,04,11,36,14.60
2010,10,04,11,37,14.60
2010,10,04,11,38,14.50
2010,10,04,11,39,14.40
2010,10,04,11,40,14.40
2010,10,04,11,41,14.40
2010,10,04,11,42,14.40
2010,10,04,11,43,14.40
2010,10,04,11,44,14.40
2010,10,04,11,45,14.40
2010,10,04,11,46,14.30
2010,10,04,11,47,14.30
2010,10,04,11,48,14.30
2010,10,04,11,49,14.30
2010,10,04,11,50,14.30
2010,10,04,11,51,14.20
2010,10,04,11,52,14.20
2010,10,04,11,53,14.20
2010,10,04,11,54,14.20
2010,10,04,11,55,14.20
2010,10,04,11,56,14.10
2010,10,04,11,57,14.10
2010,10,04,11,58,14.10
2010,10,04,11,59,14.00
2010,10,04,12,00,14.00
2010,10,04,12,01,14.00
2010,10,04,12,02,14.00
2010,10,04,12,03,14.00
2010,10,04,12,04,14.00
2010,10,04,12,05,14.00
2010,10,04,12,06,14.00
2010,10,04,12,07,14.00
2010,10,04,12,08,14.00
2010,10,04,12,09,14.00
2010,10,04,12,10,14.00
2010,10,04,12,11,14.00
2010,10,04,12,12,14.00
2010,10,04,12,13,13.90
2010,10,04,12,14,13.90
2010,10,04,12,15,13.90
2010,10,04,12,16,13.80
2010,10,04,12,17,13.80
2010,10,04,12,18,13.70
2010,10,04,12,19,13.70
2010,10,04,12,20,13.70
2010,10,04,12,21,13.80
2010,10,04,12,22,13.80
2010,10,04,12,23,13.80
2010,10,04,12,24,13.80
2010,10,04,12,25,13.80
2010,10,04,12,26,13.80
2010,10,04,12,27,13.80
2010,10,04,12,28,13.90
2010,10,04,12,29,13.90
2010,10,04,12,30,13.90
2010,10,04,12,31,13.90
2010,10,04,12,32,13.90
2010,10,04,12,33,13.90
2010,10,04,12,34,13.90
2010,10,04,12,35,13.90
2010,10,04,12,36,13.90
2010,10,04,12,37,13.90
2010,10,04,12,38,14.00
2010,10,04,12,39,14.00
2010,10,04,12,40,14.00
2010,10,04,12,41,14.00
2010,10,04,12,42,14.10
2010,10,04,12,43,14.20
2010,10,04,12,44,14.10
2010,10,04,12,45,14.10
2010,10,04,12,46,14.20
2010,10,04,12,47,14.20
2010,10,04,12,48,14.20
2010,10,04,12,49,14.20
2010,10,04,12,50,14.20
2010,10,04,12,51,14.20
2010,10,04,12,52,14.20
2010,10,04,12,53,14.20
2010,10,04,12,54,14.20
2010,10,04,12,55,14.20
2010,10,04,12,56,14.20
2010,10,04,12,57,14.20
2010,10,04,12,58,14.20
2010,10,04,12,59,14.20
2010,10,04,13,00,14.30
2010,10,04,13,01,14.30
2010,10,04,13,02,14.30
2010,10,04,13,03,14.30
2010,10,04,13,04,14.40
2010,10,04,13,05,14.40
2010,10,04,13,06,14.30
2010,10,04,13,07,14.30
2010,10,04,13,08,14.30
2010,10,04,13,09,14.30
2010,10,04,13,10,14.30
2010,10,04,13,11,14.30
2010,10,04,13,12,14.40
2010,10,04,13,13,14.60
2010,10,04,13,14,14.70
2010,10,04,13,15,14.90
2010,10,04,13,16,15.00
2010,10,04,13,17,15.00
2010,10,04,13,18,15.00
2010,10,04,13,19,14.90
2010,10,04,13,20,14.80
2010,10,04,13,21,14.80
2010,10,04,13,22,14.80
2010,10,04,13,23,14.80
2010,10,04,13,24,14.80
2010,10,04,13,25,14.80
2010,10,04,13,26,14.70
2010,10,04,13,27,14.70
2010,10,04,13,28,14.60
2010,10,04,13,29,14.60
2010,10,04,13,30,14.50
2010,10,04,13,31,14.50
2010,10,04,13,32,14.50
2010,10,04,13,33,14.60
2010,10,04,13,34,14.60
2010,10,04,13,35,14.60
2010,10,04,13,36,14.60
2010,10,04,13,37,14.60
2010,10,04,13,38,14.60
2010,10,04,13,39,14.70
2010,10,04,13,40,14.70
2010,10,04,13,41,14.70
2010,10,04,13,42,14.70
2010,10,04,13,43,14.70
2010,10,04,13,44,14.80
2010,10,04,13,45,14.80
2010,10,04,13,46,14.80
2010,10,04,13,47,14.70
2010,10,04,13,48,14.70
2010,10,04,13,49,14.90
2010,10,04,13,50,15.10
2010,10,04,13,51,15.20
2010,10,04,13,52,15.30
2010,10,04,13,53,15.20
2010,10,04,13,54,15.10
2010,10,04,13,55,15.00
2010,10,04,13,56,14.90
2010,10,04,13,57,14.80
2010,10,04,13,58,14.70
2010,10,04,13,59,14.70
2010,10,04,14,00,14.80
2010,10,04,14,01,14.70
2010,10,04,14,02,14.70
2010,10,04,14,03,14.70
2010,10,04,14,04,14.60
2010,10,04,14,05,14.50
2010,10,04,14,06,14.50
2010,10,04,14,07,14.40
2010,10,04,14,08,14.50
2010,10,04,14,09,14.60
2010,10,04,14,10,14.70
2010,10,04,14,11,14.80
2010,10,04,14,12,14.80
2010,10,04,14,13,14.90
2010,10,04,14,14,15.00
2010,10,04,14,15,15.20
2010,10,04,14,16,15.30
2010,10,04,14,17,15.30
2010,10,04,14,18,15.40
2010,10,04,14,19,15.40
2010,10,04,14,20,15.30
2010,10,04,14,21,15.30
2010,10,04,14,22,15.30
2010,10,04,14,23,15.40
2010,10,04,14,24,15.50
2010,10,04,14,25,15.50
2010,10,04,14,26,15.60
2010,10,04,14,27,15.70
2010,10,04,14,28,15.70
2010,10,04,14,29,15.80
2010,10,04,14,30,15.80
2010,10,04,14,31,15.80
2010,10,04,14,32,15.90
2010,10,04,14,33,15.80
2010,10,04,14,34,15.80
2010,10,04,14,35,15.80
2010,10,04,14,36,15.80
2010,10,04,14,37,15.70
2010,10,04,14,38,15.70
2010,10,04,14,39,15.70
2010,10,04,14,40,15.70
2010,10,04,14,41,15.60
2010,10,04,14,42,15.50
2010,10,04,14,43,15.60
2010,10,04,14,44,15.60
2010,10,04,14,45,15.70
2010,10,04,14,46,15.50
2010,10,04,14,47,15.40
2010,10,04,14,48,15.30
2010,10,04,14,49,15.30
2010,10,04,14,50,15.30
2010,10,04,14,51,15.30
2010,10,04,14,52,15.30
2010,10,04,14,53,15.30
2010,10,04,14,54,15.30
2010,10,04,14,55,15.30
2010,10,04,14,56,15.30
2010,10,04,14,57,15.30
2010,10,04,14,58,15.30
2010,10,04,14,59,15.30
2010,10,04,15,00,15.30
2010,10,04,15,01,15.40
2010,10,04,15,02,15.50
2010,10,04,15,03,15.60
2010,10,04,15,04,15.80
2010,10,04,15,05,15.80
2010,10,04,15,06,15.80
2010,10,04,15,07,15.80
2010,10,04,15,08,15.80
2010,10,04,15,09,15.80
2010,10,04,15,10,15.70
2010,10,04,15,11,15.60
2010,10,04,15,12,15.50
2010,10,04,15,13,15.50
2010,10,04,15,14,15.50
2010,10,04,15,15,15.60
2010,10,04,15,16,15.60
2010,10,04,15,17,15.60
2010,10,04,15,18,15.60
2010,10,04,15,19,15.70
2010,10,04,15,20,15.70
2010,10,04,15,21,15.70
2010,10,04,15,22,15.70
2010,10,04,15,23,15.60
2010,10,04,15,24,15.60
2010,10,04,15,25,15.60
2010,10,04,15,26,15.50
2010,10,04,15,27,15.40
2010,10,04,15,28,15.40
2010,10,04,15,29,15.30
2010,10,04,15,30,15.30
2010,10,04,15,31,15.30
2010,10,04,15,32,15.20
2010,10,04,15,33,15.10
2010,10,04,15,34,15.00
2010,10,04,15,35,15.00
2010,10,04,15,36,14.90
2010,10,04,15,37,14.90
2010,10,04,15,38,15.00
2010,10,04,15,39,15.00
2010,10,04,15,40,15.10
2010,10,04,15,41,15.20
2010,10,04,15,42,15.30
2010,10,04,15,43,15.30
2010,10,04,15,44,15.30
2010,10,04,15,45,15.40
2010,10,04,15,46,15.50
2010,10,04,15,47,15.50
2010,10,04,15,48,15.60
2010,10,04,15,49,15.60
2010,10,04,15,50,15.70
2010,10,04,15,51,15.70
2010,10,04,15,52,15.70
2010,10,04,15,53,15.60
2010,10,04,15,54,15.50
2010,10,04,15,55,15.30
2010,10,04,15,56,15.20
2010,10,04,15,57,15.00
2010,10,04,15,58,14.80
2010,10,04,15,59,14.80
2010,10,04,16,00,14.70
2010,10,04,16,01,14.70
2010,10,04,16,02,14.70
2010,10,04,16,03,14.70
2010,10,04,16,04,14.80
2010,10,04,16,05,14.90
2010,10,04,16,06,14.90
2010,10,04,16,07,14.80
2010,10,04,16,08,14.80
2010,10,04,16,09,14.90
2010,10,04,16,10,14.90
2010,10,04,16,11,14.80
2010,10,04,16,12,14.80
2010,10,04,16,13,14.90
2010,10,04,16,14,14.90
2010,10,04,16,15,14.80
2010,10,04,16,16,14.80
2010,10,04,16,17,14.80
2010,10,04,16,18,14.80
2010,10,04,16,19,14.90
2010,10,04,16,20,15.00
2010,10,04,16,21,15.00
2010,10,04,16,22,15.00
2010,10,04,16,23,15.10
2010,10,04,16,24,15.10
2010,10,04,16,25,15.00
2010,10,04,16,26,15.00
2010,10,04,16,27,14.90
2010,10,04,16,28,14.80
2010,10,04,16,29,14.80
2010,10,04,16,30,14.70
2010,10,04,16,31,14.60
2010,10,04,16,32,14.60
2010,10,04,16,33,14.50
2010,10,04,16,34,14.50
2010,10,04,16,35,14.40
2010,10,04,16,36,14.20
2010,10,04,16,37,14.20
2010,10,04,16,38,14.20
2010,10,04,16,39,14.10
2010,10,04,16,40,14.10
2010,10,04,16,41,14.10
2010,10,04,16,42,14.00
2010,10,04,16,43,14.00
2010,10,04,16,44,14.00
2010,10,04,16,45,14.00
2010,10,04,16,46,14.00
2010,10,04,16,47,14.00
2010,10,04,16,48,14.00
2010,10,04,16,49,14.00
2010,10,04,16,50,14.00
2010,10,04,16,51,14.00
2010,10,04,16,52,14.00
2010,10,04,16,53,14.00
2010,10,04,16,54,14.00
2010,10,04,16,55,14.10
2010,10,04,16,56,14.10
2010,10,04,16,57,14.20
2010,10,04,16,58,14.20
2010,10,04,16,59,14.20
2010,10,04,17,00,14.20
2010,10,04,17,01,14.20
2010,10,04,17,02,14.30
2010,10,04,17,03,14.30
2010,10,04,17,04,14.30
2010,10,04,17,05,14.30
2010,10,04,17,06,14.40
2010,10,04,17,07,14.50
2010,10,04,17,08,14.50
2010,10,04,17,09,14.60
2010,10,04,17,10,14.60
2010,10,04,17,11,14.70
2010,10,04,17,12,14.70
2010,10,04,17,13,14.70
2010,10,04,17,14,14.70
2010,10,04,17,15,14.70
2010,10,04,17,16,14.70
2010,10,04,17,17,14.70
2010,10,04,17,18,14.60
2010,10,04,17,19,14.60
2010,10,04,17,20,14.50
2010,10,04,17,21,14.40
2010,10,04,17,22,14.40
2010,10,04,17,23,14.40
2010,10,04,17,24,14.30
2010,10,04,17,25,14.30
2010,10,04,17,26,14.30
2010,10,04,17,27,14.30
2010,10,04,17,28,14.30
2010,10,04,17,29,14.30
2010,10,04,17,30,14.30
2010,10,04,17,31,14.30
2010,10,04,17,32,14.40
2010,10,04,17,33,14.40
2010,10,04,17,34,14.40
2010,10,04,17,35,14.40
2010,10,04,17,36,14.50
2010,10,04,17,37,14.60
2010,10,04,17,38,14.60
2010,10,04,17,39,14.70
2010,10,04,17,40,14.80
2010,10,04,17,41,14.80
2010,10,04,17,42,14.80
2010,10,04,17,43,14.80
2010,10,04,17,44,14.80